www.pogodaiklimat.ru

Погода и климат >> Архив погоды >> Италия >> Лорето


ПОГОДА в Лорето

  • Прогноз погоды в Лорето
  • Монитор погоды в Лорето

АРХИВ ПОГОДЫ в Лорето

Время (UTC), дата Ветер
(напр.,м/с)
 
Видим.   Явления Облачность Т
(С)
Тd
(С)
f
(%)
Тe
(С)
Тes
(С)
Комфортность P
(гПа)
Po
(гПа)
Тmin
(С)
Tmax
(С)
R
(мм)
R24
(мм)
S
(см)
16 12.06 З 3 н/о н/о +26.4 +19.2 65 +32 +32 очень
душно
1008.7 985.9 +28.8
17 12.06 З 2 н/о н/о +25.7 +21.1 76 +32 +32 очень
душно
1008.8 985.9
18 12.06 З 2 н/о н/о +24.2 +20.5 80 +30 +30 очень
душно
1009.3 986.3
19 12.06 З 1 н/о н/о +24.1 +20.8 82 +30 +30 очень
душно
1009.5 986.5
20 12.06 З 4 н/о н/о +24.7 +21.2 81 +31 +31 очень
душно
1009.9 987.0
21 12.06 З 3 н/о н/о +25.2 +19.3 70 +30 +30 душно 1010.5 987.6
00 13.06 З 4 н/о н/о +23.9 +16.4 63 +27 +27 жарко 1011.4 988.4
01 13.06 З 5 н/о н/о +23.8 +17.0 66 +28 +28 душно 1011.5 988.4
02 13.06 З 4 н/о н/о +23.1 +17.5 71 +28 +28 душно 1011.6 988.5
03 13.06 З 5 н/о н/о +22.1 +18.0 78 +27 +27 душно 1011.9 988.7
04 13.06 З 5 н/о н/о +22.0 +17.1 74 +26 +26 душно 1012.4 989.2 +21.7
05 13.06 З 7 н/о н/о +22.7 +16.4 68 +27 +27 душно 1013.2 990.0
06 13.06 З 4 н/о н/о +23.0 +16.7 68 +28 +28 душно 1014.0 990.8 708
07 13.06 З 4 н/о н/о +24.8 +16.2 59 +28 +28 жарко 1014.3 991.3
08 13.06 З 3 н/о н/о +25.7 +17.0 59 +30 +30 душно 1014.6 991.6
09 13.06 З 3 н/о н/о +26.3 +14.7 49 +29 +29 жарко 1014.9 992.0
10 13.06 З 5 н/о н/о +26.1 +12.8 44 +28 +28 жарко 1015.4 992.4
11 13.06 З 5 н/о н/о +24.7 +16.1 59 +28 +28 душно 1015.6 992.6
12 13.06 З 5 н/о н/о +24.7 +16.3 60 +28 +28 душно 1015.6 992.5
13 13.06 З 5 н/о н/о +24.3 +13.4 51 +27 +27 жарко 1015.7 992.6
14 13.06 З 4 н/о н/о +25.0 +13.1 48 +27 +27 жарко 1016.1 993.0
15 13.06 З 4 н/о н/о +24.7 +13.8 51 +27 +27 жарко 1016.0 992.9
16 13.06 ЮЗ 4 н/о н/о +24.5 +12.7 48 +26 +26 жарко 1015.9 992.8 +27.6
17 13.06 ЮЗ 4 н/о н/о +24.5 +13.9 52 +27 +27 жарко 1016.0 992.9
18 13.06 Ю 4 н/о н/о +23.7 +14.9 58 +27 +27 жарко 1016.3 993.1
19 13.06 Ю 4 н/о н/о +23.5 +13.9 55 +26 +26 жарко 1016.2 993.0
20 13.06 Ю 3 н/о н/о +23.7 +15.4 60 +27 +27 жарко 1016.7 993.5
21 13.06 Ю 4 н/о н/о +23.9 +16.1 62 +27 +27 жарко 1016.9 993.7
00 14.06 Ю 3 н/о н/о +23.3 +17.9 72 +29 +29 душно 1016.6 993.4
01 14.06 Ю 3 н/о н/о +23.5 +18.5 74 +28 +28 душно 1016.3 993.1
02 14.06 Ю 3 н/о н/о +24.0 +18.8 73 +29 +29 душно 1015.9 992.8
03 14.06 Ю 3 н/о н/о +23.9 +18.7 73 +29 +29 душно 1016.2 993.1
04 14.06 Ю 1 н/о н/о +22.3 +18.0 77 +27 +27 душно 1017.2 993.9 +21.8
05 14.06 Ю 1 н/о н/о +22.3 +18.2 78 +27 +27 душно 1017.4 994.1
06 14.06 Ю 2 н/о н/о +23.3 +19.0 77 +30 +30 очень
душно
1017.8 994.6 103
07 14.06 Ю 1 н/о н/о +24.4 +19.2 73 +29 +29 душно 1018.3 995.2
08 14.06 З 2 н/о н/о +25.5 +19.6 70 +31 +31 очень
душно
1018.3 995.2
09 14.06 З 3 н/о н/о +25.2 +19.0 69 +30 +30 душно 1018.3 995.2
10 14.06 З 4 н/о н/о +25.3 +19.6 71 +31 +31 очень
душно
1018.2 995.1
11 14.06 З 4 н/о н/о +25.0 +19.8 73 +31 +31 очень
душно
1018.2 995.1
12 14.06 З 5 н/о н/о +25.7 +18.1 63 +30 +30 душно 1017.7 994.7
13 14.06 ЮЗ 5 н/о н/о +26.4 +17.7 59 +31 +31 душно 1017.4 994.4
14 14.06 ЮЗ 6 н/о н/о +26.8 +13.1 43 +29 +29 жарко 1016.7 993.7
15 14.06 Ю 5 н/о н/о +27.2 +12.8 41 +29 +29 жарко 1016.2 993.3
16 14.06 Ю 5 н/о н/о +27.8 +10.1 33 +28 +28 жарко 1015.2 992.4 +28.2
17 14.06 Ю 4 н/о н/о +26.9 +11.0 37 +28 +28 жарко 1015.4 992.5
18 14.06 Ю 3 н/о н/о +27.1 +12.7 41 +29 +29 жарко 1015.2 992.3
19 14.06 Ю 4 н/о н/о +26.4 +13.8 46 +29 +29 жарко 1014.9 992.0
20 14.06 Ю 5 н/о н/о +26.6 +14.3 47 +29 +29 жарко 1014.9 992.0
21 14.06 Ю 4 н/о н/о +26.6 +14.3 47 +29 +29 жарко 1014.6 991.7
00 15.06 З 4 н/о н/о +26.2 +15.5 52 +29 +29 жарко 1013.9 991.0
01 15.06 Ю 2 н/о н/о +26.3 +15.9 53 +30 +30 душно 1013.4 990.5
02 15.06 З 3 н/о н/о +25.2 +16.0 57 +29 +29 душно 1013.2 990.2
03 15.06 З 2 н/о н/о +24.8 +16.2 59 +28 +28 жарко 1013.5 990.5
04 15.06 ЮЗ 2 н/о н/о +25.0 +16.6 60 +29 +29 душно 1013.5 990.5 +23.7
05 15.06 З 3 н/о н/о +24.8 +16.4 60 +28 +28 жарко 1012.3 989.4
06 15.06 Ю 4 н/о н/о +24.4 +17.3 65 +28 +28 душно 1012.8 989.8 8
07 15.06 З 3 н/о н/о +24.5 +19.3 73 +30 +30 очень
душно
1013.4 990.3
08 15.06 Ю 2 н/о н/о +25.0 +20.6 77 +31 +31 очень
душно
1013.0 990.0
09 15.06 Ю 2 н/о н/о +27.5 +20.3 65 +34 +34 очень
душно
1013.2 990.4
10 15.06 ЮЗ 3 н/о н/о +28.9 +19.2 56 +34 +34 очень
душно
1013.1 990.4
11 15.06 З 2 н/о н/о +30.2 +16.2 43 +33 +33 душно 1012.7 990.1
12 15.06 З 3 н/о н/о +30.2 +14.7 39 +32 +32 жарко 1012.5 989.9
13 15.06 З 3 н/о н/о +30.7 +11.7 31 +31 +31 жарко 1012.4 989.8
14 15.06 З 6 н/о н/о +27.9 +16.8 51 +32 +32 душно 1012.5 989.7
15 15.06 З 3 н/о н/о +28.4 +19.0 57 +34 +34 очень
душно
1012.4 989.7
16 15.06 З 4 н/о н/о +28.4 +16.6 49 +32 +32 душно 1011.8 989.1 +31.3
17 15.06 З 1 н/о н/о +28.7 +16.6 48 +32 +32 душно 1011.9 989.2
18 15.06 З 2 н/о н/о +27.4 +15.4 48 +30 +30 жарко 1011.7 988.9
19 15.06 З 3 н/о н/о +25.8 +17.4 60 +30 +30 душно 1011.8 988.9
20 15.06 З 4 н/о н/о +25.2 +17.8 64 +30 +30 душно 1012.3 989.3
21 15.06 З 2 н/о н/о +25.7 +17.3 60 +30 +30 душно 1012.3 989.4
00 16.06 З 3 н/о н/о +25.4 +17.0 60 +29 +29 душно 1013.0 990.0
01 16.06 З 4 н/о н/о +24.3 +16.7 63 +28 +28 душно 1012.9 989.8
02 16.06 З 5 н/о н/о +23.5 +15.2 60 +26 +26 жарко 1012.7 989.6
03 16.06 З 5 н/о н/о +22.4 +15.2 64 +26 +26 жарко 1012.8 989.6
04 16.06 З 6 н/о н/о +22.9 +14.6 59 +27 +27 душно 1012.9 989.7 +22.1
05 16.06 З 5 н/о н/о +22.7 +14.2 59 +26 +26 жарко 1013.0 989.8
06 16.06 З 5 н/о н/о +23.0 +14.2 58 +27 +27 душно 1013.3 990.1 710
07 16.06 З 4 н/о н/о +25.4 +15.9 56 +29 +29 душно 1013.2 990.2
08 16.06 З 4 н/о н/о +27.1 +15.7 50 +30 +30 душно 1013.1 990.3
09 16.06 З 5 н/о н/о +27.6 +15.9 49 +31 +31 душно 1013.4 990.6
10 16.06 З 5 н/о н/о +28.2 +16.4 49 +32 +32 душно 1013.4 990.6
11 16.06 З 4 н/о н/о +27.6 +17.1 53 +32 +32 очень
душно
1013.4 990.6
12 16.06 З 4 н/о н/о +28.1 +16.6 50 +32 +32 душно 1012.9 990.1
13 16.06 З 6 н/о н/о +27.1 +15.4 49 +30 +30 душно 1012.6 989.8
14 16.06 З 5 н/о н/о +26.9 +16.7 54 +31 +31 душно 1012.5 989.7
15 16.06 З 3 н/о н/о +29.1 +17.3 49 +33 +33 очень
душно
1011.9 989.2
16 16.06 З 5 н/о н/о +28.2 +15.8 47 +31 +31 душно 1011.7 989.0 +29.4
17 16.06 З 4 н/о н/о +27.8 +15.1 46 +30 +30 жарко 1012.1 989.3
18 16.06 З 3 н/о н/о +27.5 +14.1 44 +30 +30 жарко 1012.0 989.2
19 16.06 З 4 н/о н/о +26.0 +13.7 47 +28 +28 жарко 1011.7 988.8
20 16.06 З 3 н/о н/о +25.6 +13.4 47 +28 +28 жарко 1012.5 989.6
21 16.06 З 4 н/о н/о +25.4 +14.1 50 +28 +28 жарко 1013.0 990.0
00 17.06 З 5 н/о н/о +25.1 +15.4 55 +28 +28 жарко 1012.8 989.8
01 17.06 З 4 н/о н/о +25.3 +14.7 52 +28 +28 жарко 1012.5 989.5
02 17.06 З 4 н/о н/о +24.3 +15.2 57 +27 +27 жарко 1012.6 989.5
03 17.06 З 3 н/о н/о +24.5 +15.1 56 +27 +27 жарко 1012.6 989.6
04 17.06 З 4 н/о н/о +23.7 +14.9 58 +27 +27 жарко 1013.0 989.9 +23.7
05 17.06 З 4 н/о н/о +23.7 +15.4 60 +27 +27 жарко 1013.5 990.4
06 17.06 З 4 н/о н/о +23.2 +15.7 63 +28 +28 душно 1014.1 990.9 708
07 17.06 З 4 н/о н/о +23.6 +18.6 74 +28 +28 душно 1014.1 991.0
08 17.06 З 2 н/о н/о +26.1 +19.4 67 +32 +32 очень
душно
1014.1 991.2
09 17.06 З 5 н/о н/о +26.2 +20.0 69 +32 +32 очень
душно
1013.9 991.0
10 17.06 З 5 н/о н/о +26.2 +20.2 70 +32 +32 очень
душно
1013.9 991.0
11 17.06 З 6 н/о н/о +26.3 +19.4 66 +32 +32 очень
душно
1013.9 991.0
12 17.06 З 5 н/о н/о +27.5 +19.8 63 +33 +33 очень
душно
1013.6 990.8
13 17.06 З 6 н/о н/о +27.0 +19.3 63 +33 +33 очень
душно
1013.4 990.6
14 17.06 З 6 н/о н/о +24.2 +18.8 72 +29 +29 душно 1013.7 990.6
15 17.06 З 5 н/о н/о +24.6 +18.5 69 +29 +29 душно 1013.9 990.9
16 17.06 З 3 н/о н/о +24.9 +17.6 64 +29 +29 душно 1013.6 990.6 +28.1
17 17.06 З 2 н/о н/о +24.7 +17.9 66 +29 +29 душно 1013.9 990.9
18 17.06 З 3 н/о н/о +23.6 +18.8 74 +28 +28 душно 1013.9 990.8
19 17.06 З 4 н/о н/о +22.7 +18.8 79 +29 +29 очень
душно
1013.8 990.6
20 17.06 З 5 н/о н/о +22.0 +18.5 81 +27 +27 душно 1014.3 991.0
21 17.06 З 5 н/о н/о +21.7 +18.2 80 +26 +26 душно 1014.5 991.2
00 18.06 З 7 н/о н/о +19.7 +18.0 90 +22 +22 комфорт 1014.6 991.2
01 18.06 З 6 н/о н/о +20.5 +18.0 86 +24 +24 комфорт 1014.4 991.0
02 18.06 З 6 н/о н/о +19.8 +17.5 87 +22 +22 комфорт 1014.0 990.6
03 18.06 З 5 н/о н/о +19.8 +17.1 84 +22 +22 комфорт 1014.1 990.7
04 18.06 З 5 н/о н/о +19.7 +16.9 84 +22 +22 комфорт 1014.2 990.8 +19.4
05 18.06 З 6 н/о н/о +19.6 +16.8 84 +22 +22 комфорт 1014.6 991.2
06 18.06 З 5 н/о н/о +20.8 +17.7 82 +25 +25 комфорт 1014.8 991.5 709
07 18.06 З 5 н/о н/о +23.1 +19.6 81 +30 +30 очень
душно
1015.0 991.8
08 18.06 З 5 н/о н/о +24.6 +19.1 71 +30 +30 очень
душно
1014.8 991.7
09 18.06 З 3 н/о н/о +26.3 +19.4 66 +32 +32 очень
душно
1014.8 991.9
10 18.06 З 5 н/о н/о +26.7 +18.2 60 +31 +31 душно 1014.8 991.9
11 18.06 З 5 н/о н/о +26.8 +18.3 60 +32 +32 очень
душно
1014.5 991.6
12 18.06 З 6 н/о н/о +26.2 +18.5 63 +31 +31 очень
душно
1014.3 991.3
13 18.06 З 7 н/о н/о +26.4 +17.9 60 +31 +31 душно 1013.8 990.9
14 18.06 З 5 н/о н/о +26.4 +17.9 60 +31 +31 душно 1013.7 990.8
15 18.06 З 5 н/о н/о +25.9 +18.3 63 +31 +31 очень
душно
1013.3 990.4
16 18.06 З 5 н/о н/о +25.4 +18.3 65 +30 +30 душно 1013.1 990.1 +27.5
17 18.06 З 2 н/о н/о +25.5 +17.6 62 +30 +30 душно 1013.4 990.4
18 18.06 Ю 3 н/о н/о +24.3 +17.5 66 +28 +28 душно 1013.8 990.7
19 18.06 Ю 3 н/о н/о +24.1 +16.8 64 +28 +28 душно 1013.6 990.5
20 18.06 Ю 3 н/о н/о +24.1 +16.5 63 +28 +28 душно 1013.9 990.8
21 18.06 Ю 3 н/о н/о +23.9 +16.6 64 +27 +27 жарко 1013.8 990.7
00 19.06 З 2 н/о н/о +24.2 +18.8 72 +29 +29 душно 1013.2 990.1
01 19.06 З 2 н/о н/о +24.3 +18.4 70 +29 +29 душно 1012.9 989.9
02 19.06 З 4 н/о н/о +23.5 +17.9 71 +28 +28 душно 1012.7 989.6
03 19.06 З 4 н/о н/о +22.7 +17.5 72 +28 +28 душно 1012.7 989.5
04 19.06 З 4 н/о н/о +22.2 +17.7 76 +27 +27 душно 1012.8 989.6 +21.2
05 19.06 З 3 н/о н/о +23.1 +18.1 73 +29 +29 очень
душно
1012.8 989.7
06 19.06 З 3 н/о н/о +24.1 +18.7 72 +29 +29 душно 1012.9 989.8 605
07 19.06 З 2 н/о н/о +26.0 +19.3 67 +31 +31 очень
душно
1013.0 990.1
08 19.06 З 2 н/о н/о +26.7 +20.2 68 +33 +33 очень
душно
1013.1 990.2
09 19.06 З 3 н/о н/о +26.8 +20.8 70 +34 +34 очень
душно
1012.9 990.1
10 19.06 З 4 н/о н/о +27.2 +20.2 66 +34 +34 очень
душно
1012.7 989.9
11 19.06 З 3 н/о н/о +27.5 +20.5 66 +34 +34 очень
душно
1012.7 989.9
12 19.06 З 4 н/о н/о +26.9 +19.2 63 +32 +32 очень
душно
1012.5 989.6
13 19.06 ЮЗ 3 н/о н/о +24.2 +20.5 80 +30 +30 очень
душно
1012.8 989.7
14 19.06 Ю 3 н/о н/о +24.7 +21.0 80 +31 +31 очень
душно
1012.3 989.3
15 19.06 ЮЗ 3 н/о н/о +27.3 +19.3 62 +33 +33 очень
душно
1011.4 988.6

 

Местоположение метеостанции Лорето (Италия): широта 43.43 долгота 13.58 высота над уровнем моря 196 м.

В архиве по умолчанию представлена погода в Лорето за последнюю неделю. Архивные данные за месяц целиком и за предыдущие месяцы, начиная с января 2011 года, Вы можете получить, выбрав интересующий диапазон дат из раскрывающегося списка и нажав кнопку "Ввод!".


*Определитесь, кто Вы:
робот инопланетянин человек

Внимание! Время в таблицах - всемирное. Для получения местного времени необходимо прибавить поправку, которая равна 1 ч.

Смотрите также архив погоды в соседних городах и на ближайших метеорологических станциях:

Погода в Анконе (Италия) (22 км)
Погода во Фронтоне (Италия) (69 км)
Погода в Римини (Италия) (102 км)
Погода на Монте Терминилло (Италия) (117 км)
Погода в Червии (Италия) (135 км)
Погода в Ареццо (Италия) (140 км)
Погода в Мали-Лошине (Хорватия) (142 км)
Погода в Пунта Марина (Италия) (153 км)
Погода в Задаре (Хорватия) (153 км)
Погода в Задар аэропорту (Хорватия) (161 км)

Пояснения к столбцам:

Ветер - указаны скорость ветра в м/с - средняя за 10 мин, порывы в срок и между сроками (в фигурных скобках) и направление, откуда дует ветер: С - северный, СВ - северо-восточный, В - восточный, ЮВ - юго-восточный, Ю - южный, ЮЗ - юго-западный, З - западный, СЗ - северо-западный.
Видимость - горизонтальная дальность видимости в метрах или километрах. При видимости от 1 до 10 км при отсутствии осадков обычно наблюдается дымка, при ухудшении видимости до 1 км и менее - туман. В сухую погоду видимость может ухудшаться дымом, пылью или мглою.
Явления - указаны атмосферные явления, наблюдавшиеся в срок или в последний час перед сроком; фигурными скобками обозначены явления, наблюдавшиеся между сроками (за 1-3 часа до срока); квадратными скобками обозначены град или гололедные отложения с указанием их диаметра в мм.
Облачность - указаны через наклонную черту общая и нижняя облачность в баллах и высота нижней границы облаков в метрах; квадратными скобками обозначены формы облаков: Ci - перистые, Cs - перисто-слоистые, Cc - перисто-кучевые, Ac - высококучевые, As - высокослоистые, Sc - слоисто-кучевые, Ns - слоисто-дождевые, Cu - кучевые, Cb - кучево-дождевые. Подробнее классификацию облаков см. в Атласе облаков (PDF).
T - Температура воздуха - температура, измеренная на высоте 2 м над землей.
Td - Температура точки росы - температура, при понижении до которой содержащийся в воздухе водяной пар достигнет насыщения.
f - Относительная влажность воздуха - влажноcть воздуха, измеренная на высоте 2 м над землей.
Te - Эффективная температура - температура, которую ощущает одетый по сезону человек в тени. Характеристика душности погоды. При расчете учитывается влияние влажности воздуха и скорости ветра на теплоощущения человека.
Tes - Эффективная температура на солнце - температура, которую ощущает человек, с поправкой на солнечный нагрев. Характеристика знойности погоды. Зависит от высоты солнца над горизонтом, облачности и скорости ветра. Ночью, в пасмурную погоду, а также при ветре 12 м/с и более поправка равна нулю.
P - Атмосферное давление - приведенное к уровню моря атмосферное давление.
Po - Атмосферное давление - измеренное на уровне метеостанции атмосферное давление.
Tmin - Минимальная температура - минимум температуры воздуха на высоте 2 м над землей.
Tmax - Максимальная температура - максимум температуры воздуха на высоте 2 м над землей.
R - Количество осадков - Количество выпавших осадков за период времени, мм. При наведении курсора мыши на число - период времени, за который выпало указанное количество осадков.
R24 - Количество осадков - Количество выпавших осадков за 24 часа, мм.
S - Снежный покров - Высота снежного покрова, см. При наведении курсора мыши на число - состояние снежного покрова и степень покрытия местности в баллах.